User: anonymous   Login
Location: Natural Bridges National Monument
(37.6093°N, 109.9767°W)
Time: 23:54:34
(UTC-06:00)
Language:

USA 32 - Orbit

View from above orbital plane
View from above orbital plane
View from above satellite
View from above satellite

Ground track
Ground track

The orbit data is extracted from the following two-line orbital elements,

1 19460U 88078A   16141.00454787 0.00000070  00000-0  25425-4 0    01
2 19460  84.9833  90.2357 0004000  17.9434 342.0564 14.33376776    06
Epoch (UTC): 20 May 2016 00:06:32
Eccentricity: 0.0004000
inclination: 84.9833°
perigee height: 777 km
apogee height: 783 km
right ascension of ascending node: 90.2357°
argument of perigee: 17.9434°
revolutions per day: 14.33376776
mean anomaly at epoch: 342.0564°
orbit number at epoch: 0

The dashed part of the orbit path shows where the satellite is in the earth's shadow,  

DLR